{"data":{"norad_id":60534,"intl_designator":"2024-149BU","name":"SATELIOT_2","alt_names":[],"object_type":"PAYLOAD","status":"ACTIVE","operator":null,"country":"SPN","launch_date":"2024-08-16","launch_site_code":"AFWTR","launch_vehicle":null,"mission":null,"orbit_class":"UNKNOWN","rcs_meters":null,"size_class":null,"mass_kg":null,"dimensions":null,"purposes":[],"wikipedia_slug":null,"has_3d_model":false,"image_url":null,"decayed_at":null,"tle_current":{"epoch":"2026-09-22T17:08:03.971040Z","epoch_age_seconds":97903,"freshness":"FRESH","line1":"1 60534U 24149BU  26265.71393485  .00000569  00000+0  54862-4 0  9997","line2":"2 60534  97.6754 338.8681 0001820  94.8349 265.3080 14.96646846114557","mean_motion":14.96646846,"eccentricity":0.000182,"inclination_deg":97.6754,"raan_deg":338.8681,"arg_perigee_deg":94.8349,"mean_anomaly_deg":265.308,"bstar":5.4862e-5,"rev_number":11455,"period_min":96.21508265952,"perigee_km":575.99989996844,"apogee_km":578.53166658155,"semimajor_km":6955.402783275,"source":"CELESTRAK","updated_at":"2026-09-23T09:00:20.669449Z"}}}